Weather in Petrovskoye

Russia / Republic of Bashkortostan     53°37′00″N   56°23′15″E
temp.,
°C
wind,
m/s
gust,
m/s
humid.,
%
clouds,
%
prec.,
mm/h
press.,
hPa
HPBL,
m
7 march, sun
sun723:00−10ssw2396100 0.4 101475
02:00−11ssw1196100 0.1 101221
05:00−11n1196100 0.3 101121
08:00−13n2299100 0.1 100963
11:00−11nnw3596100 0.1 1009298
14:00−10nnw479198 0.0 1009569
17:00−11nw459298 0.1 1010567
20:00−15sw129899 0.1 101220
8 march, mon
mon823:00−16ssw3399100 0.1 101340
02:00−15s499597 0.2 1013243
05:00−14s5129298 0.3 1011334
08:00−12s71693100 0.6 1008591
11:00−10s91792100 1.4 1006837
14:00−6ssw111792100 1.3 10051200
17:00−4sw101592100 2.3 10051218
20:00−5sw81494100 0.4 1007883
9 march, tue
tue923:00−5sw71393100 1.7 1008858
02:00−5ssw51196100 0.6 1008593
05:00−4ssw71395100 2.1 1006772
08:00−5ssw81594100 1.8 1005767
11:00−3sw91493100 2.6 1005962
14:00−4wsw81189100 1.8 10071080
17:00−6w3481100 1.8 1008596
20:00−11ene1188100 0.0 100821
10 march, wed
wed1023:00−10ene2289100 0.0 100828
02:00−10n3496100 1.9 1005161
05:00−11nw3896100 3.4 1005367
08:00−13nw4897100 1.0 1006368
11:00−13wnw4595100 1.4 1007370
14:00−13wnw4594100 0.2 1009454
17:00−13nw5695100 0.5 1010556
20:00−17nw3799100 0.4 1013239
11 march, thu
thu1123:00−21nw24100100 0.6 101579
02:00−24nw11100100 0.1 101620
05:00−26nw11100100 0.1 101819
08:00−29nw11100100 0.0 102019
11:00−23wnw2295100 0.1 1021221
14:00−20wnw339198 0.0 1021410
17:00−19w348997 0.0 1021439
20:00−23sw339856 0.0 102325